User: anonymous   Login
Location: Desert Center
(33.7130°N, 115.4010°W)
Time: 01:06:01
(UTC-08:00)
Language:

USA 215 - Orbit

View from above orbital plane
View from above orbital plane
View from above satellite
View from above satellite

Ground track
Ground track

The orbit data is extracted from the following two-line orbital elements,

1 37162U 10046A   18018.83646728 0.00000000  00000-0  00000-0 0    05
2 37162 123.0003 124.7098 0004000 135.7030 224.2970 13.41422163    07
Epoch (UTC): 18 January 2018 20:04:30
Eccentricity: 0.0004000
inclination: 123.0003°
perigee height: 1101 km
apogee height: 1107 km
right ascension of ascending node: 124.7098°
argument of perigee: 135.7030°
revolutions per day: 13.41422163
mean anomaly at epoch: 224.2970°
orbit number at epoch: 0

The dashed part of the orbit path shows where the satellite is in the earth's shadow,  

DLR